Year,Month,Day,Hour,Minute,Value (Times are PST for temperature in C)
2010,04,10,00,00,-0.70
2010,04,10,00,01,-0.80
2010,04,10,00,02,-0.80
2010,04,10,00,03,-0.80
2010,04,10,00,04,-0.80
2010,04,10,00,05,-0.80
2010,04,10,00,06,-0.80
2010,04,10,00,07,-0.80
2010,04,10,00,08,-0.80
2010,04,10,00,09,-0.80
2010,04,10,00,10,-0.80
2010,04,10,00,11,-0.80
2010,04,10,00,12,-0.90
2010,04,10,00,13,-0.90
2010,04,10,00,14,-0.90
2010,04,10,00,15,-0.90
2010,04,10,00,16,-0.90
2010,04,10,00,17,-0.90
2010,04,10,00,18,-0.90
2010,04,10,00,19,-0.90
2010,04,10,00,20,-1.00
2010,04,10,00,21,-1.00
2010,04,10,00,22,-1.00
2010,04,10,00,23,-1.00
2010,04,10,00,24,-1.00
2010,04,10,00,25,-1.00
2010,04,10,00,26,-1.10
2010,04,10,00,27,-1.10
2010,04,10,00,28,-1.10
2010,04,10,00,29,-1.10
2010,04,10,00,30,-1.10
2010,04,10,00,31,-1.10
2010,04,10,00,32,-1.10
2010,04,10,00,33,-1.10
2010,04,10,00,34,-1.10
2010,04,10,00,35,-1.10
2010,04,10,00,36,-1.10
2010,04,10,00,37,-1.10
2010,04,10,00,38,-1.20
2010,04,10,00,39,-1.20
2010,04,10,00,40,-1.20
2010,04,10,00,41,-1.20
2010,04,10,00,42,-1.20
2010,04,10,00,43,-1.20
2010,04,10,00,44,-1.20
2010,04,10,00,45,-1.20
2010,04,10,00,46,-1.20
2010,04,10,00,47,-1.20
2010,04,10,00,48,-1.20
2010,04,10,00,49,-1.20
2010,04,10,00,50,-1.20
2010,04,10,00,51,-1.20
2010,04,10,00,52,-1.20
2010,04,10,00,53,-1.20
2010,04,10,00,54,-1.20
2010,04,10,00,55,-1.20
2010,04,10,00,56,-1.20
2010,04,10,00,57,-1.20
2010,04,10,00,58,-1.20
2010,04,10,00,59,-1.20
2010,04,10,01,00,-1.20
2010,04,10,01,01,-1.30
2010,04,10,01,02,-1.30
2010,04,10,01,03,-1.30
2010,04,10,01,04,-1.30
2010,04,10,01,05,-1.20
2010,04,10,01,06,-1.20
2010,04,10,01,07,-1.20
2010,04,10,01,08,-1.30
2010,04,10,01,09,-1.30
2010,04,10,01,10,-1.30
2010,04,10,01,11,-1.30
2010,04,10,01,12,-1.30
2010,04,10,01,13,-1.30
2010,04,10,01,14,-1.30
2010,04,10,01,15,-1.30
2010,04,10,01,16,-1.30
2010,04,10,01,17,-1.30
2010,04,10,01,18,-1.30
2010,04,10,01,19,-1.30
2010,04,10,01,20,-1.30
2010,04,10,01,21,-1.30
2010,04,10,01,22,-1.30
2010,04,10,01,23,-1.30
2010,04,10,01,24,-1.30
2010,04,10,01,25,-1.30
2010,04,10,01,26,-1.30
2010,04,10,01,27,-1.30
2010,04,10,01,28,-1.30
2010,04,10,01,29,-1.30
2010,04,10,01,30,-1.30
2010,04,10,01,31,-1.30
2010,04,10,01,32,-1.30
2010,04,10,01,33,-1.30
2010,04,10,01,34,-1.30
2010,04,10,01,35,-1.30
2010,04,10,01,36,-1.30
2010,04,10,01,37,-1.30
2010,04,10,01,38,-1.30
2010,04,10,01,39,-1.30
2010,04,10,01,40,-1.30
2010,04,10,01,41,-1.30
2010,04,10,01,42,-1.30
2010,04,10,01,43,-1.30
2010,04,10,01,44,-1.30
2010,04,10,01,45,-1.30
2010,04,10,01,46,-1.30
2010,04,10,01,47,-1.30
2010,04,10,01,48,-1.30
2010,04,10,01,49,-1.30
2010,04,10,01,50,-1.30
2010,04,10,01,51,-1.30
2010,04,10,01,52,-1.30
2010,04,10,01,53,-1.30
2010,04,10,01,54,-1.30
2010,04,10,01,55,-1.30
2010,04,10,01,56,-1.30
2010,04,10,01,57,-1.30
2010,04,10,01,58,-1.30
2010,04,10,01,59,-1.30
2010,04,10,02,00,-1.30
2010,04,10,02,01,-1.30
2010,04,10,02,02,-1.30
2010,04,10,02,03,-1.30
2010,04,10,02,04,-1.30
2010,04,10,02,05,-1.30
2010,04,10,02,06,-1.30
2010,04,10,02,07,-1.40
2010,04,10,02,08,-1.40
2010,04,10,02,09,-1.40
2010,04,10,02,10,-1.40
2010,04,10,02,11,-1.40
2010,04,10,02,12,-1.40
2010,04,10,02,13,-1.40
2010,04,10,02,14,-1.40
2010,04,10,02,15,-1.40
2010,04,10,02,16,-1.40
2010,04,10,02,17,-1.40
2010,04,10,02,18,-1.40
2010,04,10,02,19,-1.40
2010,04,10,02,20,-1.40
2010,04,10,02,21,-1.40
2010,04,10,02,22,-1.40
2010,04,10,02,23,-1.40
2010,04,10,02,24,-1.40
2010,04,10,02,25,-1.40
2010,04,10,02,26,-1.40
2010,04,10,02,27,-1.40
2010,04,10,02,28,-1.40
2010,04,10,02,29,-1.40
2010,04,10,02,30,-1.40
2010,04,10,02,31,-1.40
2010,04,10,02,32,-1.40
2010,04,10,02,33,-1.40
2010,04,10,02,34,-1.40
2010,04,10,02,35,-1.40
2010,04,10,02,36,-1.40
2010,04,10,02,37,-1.40
2010,04,10,02,38,-1.40
2010,04,10,02,39,-1.40
2010,04,10,02,40,-1.40
2010,04,10,02,41,-1.40
2010,04,10,02,42,-1.40
2010,04,10,02,43,-1.40
2010,04,10,02,44,-1.40
2010,04,10,02,45,-1.40
2010,04,10,02,46,-1.40
2010,04,10,02,47,-1.40
2010,04,10,02,48,-1.40
2010,04,10,02,49,-1.40
2010,04,10,02,50,-1.40
2010,04,10,02,51,-1.40
2010,04,10,02,52,-1.50
2010,04,10,02,53,-1.50
2010,04,10,02,54,-1.50
2010,04,10,02,55,-1.40
2010,04,10,02,56,-1.40
2010,04,10,02,57,-1.40
2010,04,10,02,58,-1.40
2010,04,10,02,59,-1.40
2010,04,10,03,00,-1.40
2010,04,10,03,01,-1.40
2010,04,10,03,02,-1.40
2010,04,10,03,03,-1.40
2010,04,10,03,04,-1.40
2010,04,10,03,05,-1.40
2010,04,10,03,06,-1.40
2010,04,10,03,07,-1.40
2010,04,10,03,08,-1.40
2010,04,10,03,09,-1.40
2010,04,10,03,10,-1.40
2010,04,10,03,11,-1.40
2010,04,10,03,12,-1.40
2010,04,10,03,13,-1.50
2010,04,10,03,14,-1.50
2010,04,10,03,15,-1.50
2010,04,10,03,16,-1.50
2010,04,10,03,17,-1.50
2010,04,10,03,18,-1.50
2010,04,10,03,19,-1.50
2010,04,10,03,20,-1.50
2010,04,10,03,21,-1.50
2010,04,10,03,22,-1.50
2010,04,10,03,23,-1.50
2010,04,10,03,24,-1.50
2010,04,10,03,25,-1.50
2010,04,10,03,26,-1.50
2010,04,10,03,27,-1.50
2010,04,10,03,28,-1.50
2010,04,10,03,29,-1.60
2010,04,10,03,30,-1.60
2010,04,10,03,31,-1.60
2010,04,10,03,32,-1.60
2010,04,10,03,33,-1.60
2010,04,10,03,34,-1.60
2010,04,10,03,35,-1.60
2010,04,10,03,36,-1.60
2010,04,10,03,37,-1.60
2010,04,10,03,38,-1.60
2010,04,10,03,39,-1.60
2010,04,10,03,40,-1.60
2010,04,10,03,41,-1.60
2010,04,10,03,42,-1.60
2010,04,10,03,43,-1.60
2010,04,10,03,44,-1.60
2010,04,10,03,45,-1.60
2010,04,10,03,46,-1.60
2010,04,10,03,47,-1.60
2010,04,10,03,48,-1.60
2010,04,10,03,49,-1.60
2010,04,10,03,50,-1.60
2010,04,10,03,51,-1.60
2010,04,10,03,52,-1.60
2010,04,10,03,53,-1.60
2010,04,10,03,54,-1.60
2010,04,10,03,55,-1.60
2010,04,10,03,56,-1.60
2010,04,10,03,57,-1.60
2010,04,10,03,58,-1.60
2010,04,10,03,59,-1.60
2010,04,10,04,00,-1.60
2010,04,10,04,01,-1.60
2010,04,10,04,02,-1.60
2010,04,10,04,03,-1.60
2010,04,10,04,04,-1.60
2010,04,10,04,05,-1.60
2010,04,10,04,06,-1.60
2010,04,10,04,07,-1.60
2010,04,10,04,08,-1.60
2010,04,10,04,09,-1.60
2010,04,10,04,10,-1.60
2010,04,10,04,11,-1.60
2010,04,10,04,12,-1.60
2010,04,10,04,13,-1.60
2010,04,10,04,14,-1.60
2010,04,10,04,15,-1.60
2010,04,10,04,16,-1.60
2010,04,10,04,17,-1.60
2010,04,10,04,18,-1.60
2010,04,10,04,19,-1.70
2010,04,10,04,20,-1.70
2010,04,10,04,21,-1.60
2010,04,10,04,22,-1.60
2010,04,10,04,23,-1.60
2010,04,10,04,24,-1.60
2010,04,10,04,25,-1.70
2010,04,10,04,26,-1.70
2010,04,10,04,27,-1.70
2010,04,10,04,28,-1.70
2010,04,10,04,29,-1.70
2010,04,10,04,30,-1.70
2010,04,10,04,31,-1.70
2010,04,10,04,32,-1.70
2010,04,10,04,33,-1.70
2010,04,10,04,34,-1.70
2010,04,10,04,35,-1.70
2010,04,10,04,36,-1.70
2010,04,10,04,37,-1.70
2010,04,10,04,38,-1.70
2010,04,10,04,39,-1.70
2010,04,10,04,40,-1.70
2010,04,10,04,41,-1.70
2010,04,10,04,42,-1.70
2010,04,10,04,43,-1.60
2010,04,10,04,44,-1.60
2010,04,10,04,45,-1.60
2010,04,10,04,46,-1.50
2010,04,10,04,47,-1.50
2010,04,10,04,48,-1.50
2010,04,10,04,49,-1.40
2010,04,10,04,50,-1.40
2010,04,10,04,51,-1.40
2010,04,10,04,52,-1.40
2010,04,10,04,53,-1.40
2010,04,10,04,54,-1.40
2010,04,10,04,55,-1.40
2010,04,10,04,56,-1.50
2010,04,10,04,57,-1.50
2010,04,10,04,58,-1.50
2010,04,10,04,59,-1.50
2010,04,10,05,00,-1.50
2010,04,10,05,01,-1.50
2010,04,10,05,02,-1.50
2010,04,10,05,03,-1.50
2010,04,10,05,04,-1.50
2010,04,10,05,05,-1.50
2010,04,10,05,06,-1.50
2010,04,10,05,07,-1.50
2010,04,10,05,08,-1.50
2010,04,10,05,09,-1.50
2010,04,10,05,10,-1.50
2010,04,10,05,11,-1.50
2010,04,10,05,12,-1.50
2010,04,10,05,13,-1.50
2010,04,10,05,14,-1.50
2010,04,10,05,15,-1.50
2010,04,10,05,16,-1.50
2010,04,10,05,17,-1.50
2010,04,10,05,18,-1.50
2010,04,10,05,19,-1.60
2010,04,10,05,20,-1.60
2010,04,10,05,21,-1.60
2010,04,10,05,22,-1.60
2010,04,10,05,23,-1.60
2010,04,10,05,24,-1.60
2010,04,10,05,25,-1.60
2010,04,10,05,26,-1.60
2010,04,10,05,27,-1.60
2010,04,10,05,28,-1.60
2010,04,10,05,29,-1.60
2010,04,10,05,30,-1.60
2010,04,10,05,31,-1.60
2010,04,10,05,32,-1.60
2010,04,10,05,33,-1.60
2010,04,10,05,34,-1.70
2010,04,10,05,35,-1.70
2010,04,10,05,36,-1.70
2010,04,10,05,37,-1.70
2010,04,10,05,38,-1.70
2010,04,10,05,39,-1.70
2010,04,10,05,40,-1.70
2010,04,10,05,41,-1.70
2010,04,10,05,42,-1.70
2010,04,10,05,43,-1.70
2010,04,10,05,44,-1.70
2010,04,10,05,45,-1.70
2010,04,10,05,46,-1.70
2010,04,10,05,47,-1.70
2010,04,10,05,48,-1.70
2010,04,10,05,49,-1.80
2010,04,10,05,50,-1.80
2010,04,10,05,51,-1.80
2010,04,10,05,52,-1.80
2010,04,10,05,53,-1.80
2010,04,10,05,54,-1.80
2010,04,10,05,55,-1.80
2010,04,10,05,56,-1.80
2010,04,10,05,57,-1.80
2010,04,10,05,58,-1.80
2010,04,10,05,59,-1.80
2010,04,10,06,00,-1.80
2010,04,10,06,01,-1.80
2010,04,10,06,02,-1.80
2010,04,10,06,03,-1.80
2010,04,10,06,04,-1.80
2010,04,10,06,05,-1.80
2010,04,10,06,06,-1.80
2010,04,10,06,07,-1.80
2010,04,10,06,08,-1.80
2010,04,10,06,09,-1.80
2010,04,10,06,10,-1.80
2010,04,10,06,11,-1.80
2010,04,10,06,12,-1.80
2010,04,10,06,13,-1.80
2010,04,10,06,14,-1.80
2010,04,10,06,15,-1.80
2010,04,10,06,16,-1.80
2010,04,10,06,17,-1.80
2010,04,10,06,18,-1.80
2010,04,10,06,19,-1.80
2010,04,10,06,20,-1.80
2010,04,10,06,21,-1.80
2010,04,10,06,22,-1.80
2010,04,10,06,23,-1.80
2010,04,10,06,24,-1.80
2010,04,10,06,25,-1.80
2010,04,10,06,26,-1.70
2010,04,10,06,27,-1.70
2010,04,10,06,28,-1.70
2010,04,10,06,29,-1.70
2010,04,10,06,30,-1.70
2010,04,10,06,31,-1.70
2010,04,10,06,32,-1.70
2010,04,10,06,33,-1.70
2010,04,10,06,34,-1.70
2010,04,10,06,35,-1.70
2010,04,10,06,36,-1.70
2010,04,10,06,37,-1.70
2010,04,10,06,38,-1.70
2010,04,10,06,39,-1.70
2010,04,10,06,40,-1.70
2010,04,10,06,41,-1.70
2010,04,10,06,42,-1.70
2010,04,10,06,43,-1.70
2010,04,10,06,44,-1.70
2010,04,10,06,45,-1.70
2010,04,10,06,46,-1.70
2010,04,10,06,47,-1.70
2010,04,10,06,48,-1.70
2010,04,10,06,49,-1.70
2010,04,10,06,50,-1.70
2010,04,10,06,51,-1.70
2010,04,10,06,52,-1.70
2010,04,10,06,53,-1.70
2010,04,10,06,54,-1.70
2010,04,10,06,55,-1.70
2010,04,10,06,56,-1.70
2010,04,10,06,57,-1.70
2010,04,10,06,58,-1.70
2010,04,10,06,59,-1.70
2010,04,10,07,00,-1.70
2010,04,10,07,01,-1.70
2010,04,10,07,02,-1.70
2010,04,10,07,03,-1.70
2010,04,10,07,04,-1.70
2010,04,10,07,05,-1.70
2010,04,10,07,06,-1.70
2010,04,10,07,07,-1.70
2010,04,10,07,08,-1.70
2010,04,10,07,09,-1.70
2010,04,10,07,10,-1.70
2010,04,10,07,11,-1.60
2010,04,10,07,12,-1.60
2010,04,10,07,13,-1.60
2010,04,10,07,14,-1.60
2010,04,10,07,15,-1.60
2010,04,10,07,16,-1.60
2010,04,10,07,17,-1.60
2010,04,10,07,18,-1.60
2010,04,10,07,19,-1.60
2010,04,10,07,20,-1.60
2010,04,10,07,21,-1.60
2010,04,10,07,22,-1.50
2010,04,10,07,23,-1.50
2010,04,10,07,24,-1.50
2010,04,10,07,25,-1.50
2010,04,10,07,26,-1.50
2010,04,10,07,27,-1.50
2010,04,10,07,28,-1.50
2010,04,10,07,29,-1.50
2010,04,10,07,30,-1.50
2010,04,10,07,31,-1.50
2010,04,10,07,32,-1.50
2010,04,10,07,33,-1.50
2010,04,10,07,34,-1.50
2010,04,10,07,35,-1.50
2010,04,10,07,36,-1.50
2010,04,10,07,37,-1.50
2010,04,10,07,38,-1.50
2010,04,10,07,39,-1.50
2010,04,10,07,40,-1.50
2010,04,10,07,41,-1.50
2010,04,10,07,42,-1.50
2010,04,10,07,43,-1.50
2010,04,10,07,44,-1.50
2010,04,10,07,45,-1.50
2010,04,10,07,46,-1.50
2010,04,10,07,47,-1.40
2010,04,10,07,48,-1.40
2010,04,10,07,49,-1.40
2010,04,10,07,50,-1.40
2010,04,10,07,51,-1.40
2010,04,10,07,52,-1.30
2010,04,10,07,53,-1.30
2010,04,10,07,54,-1.30
2010,04,10,07,55,-1.30
2010,04,10,07,56,-1.30
2010,04,10,07,57,-1.30
2010,04,10,07,58,-1.20
2010,04,10,07,59,-1.20
2010,04,10,08,00,-1.20
2010,04,10,08,01,-1.10
2010,04,10,08,02,-1.10
2010,04,10,08,03,-1.10
2010,04,10,08,04,-1.00
2010,04,10,08,05,-1.00
2010,04,10,08,06,-1.00
2010,04,10,08,07,-0.90
2010,04,10,08,08,-0.80
2010,04,10,08,09,-0.80
2010,04,10,08,10,-0.70
2010,04,10,08,11,-0.70
2010,04,10,08,12,-0.70
2010,04,10,08,13,-0.60
2010,04,10,08,14,-0.60
2010,04,10,08,15,-0.60
2010,04,10,08,16,-0.60
2010,04,10,08,17,-0.50
2010,04,10,08,18,-0.50
2010,04,10,08,19,-0.40
2010,04,10,08,20,-0.40
2010,04,10,08,21,-0.30
2010,04,10,08,22,-0.30
2010,04,10,08,23,-0.30
2010,04,10,08,24,-0.30
2010,04,10,08,25,-0.20
2010,04,10,08,26,-0.20
2010,04,10,08,27,-0.20
2010,04,10,08,28,-0.10
2010,04,10,08,29,-0.10
2010,04,10,08,30,-0.10
2010,04,10,08,31,0.00
2010,04,10,08,32,0.00
2010,04,10,08,33,0.10
2010,04,10,08,34,0.10
2010,04,10,08,35,0.20
2010,04,10,08,36,0.20
2010,04,10,08,37,0.20
2010,04,10,08,38,0.30
2010,04,10,08,39,0.30
2010,04,10,08,40,0.40
2010,04,10,08,41,0.40
2010,04,10,08,42,0.50
2010,04,10,08,43,0.50
2010,04,10,08,44,0.60
2010,04,10,08,45,0.70
2010,04,10,08,46,0.70
2010,04,10,08,47,0.80
2010,04,10,08,48,0.80
2010,04,10,08,49,0.90
2010,04,10,08,50,1.00
2010,04,10,08,51,1.10
2010,04,10,08,52,1.10
2010,04,10,08,53,1.20
2010,04,10,08,54,1.30
2010,04,10,08,55,1.30
2010,04,10,08,56,1.30
2010,04,10,08,57,1.40
2010,04,10,08,58,1.50
2010,04,10,08,59,1.60
2010,04,10,09,00,1.70
2010,04,10,09,01,1.80
2010,04,10,09,02,2.00
2010,04,10,09,03,2.10
2010,04,10,09,04,2.20
2010,04,10,09,05,2.30
2010,04,10,09,06,2.40
2010,04,10,09,07,2.50
2010,04,10,09,08,2.60
2010,04,10,09,09,2.70
2010,04,10,09,10,2.80
2010,04,10,09,11,2.80
2010,04,10,09,12,2.90
2010,04,10,09,13,3.00
2010,04,10,09,14,3.10
2010,04,10,09,15,3.20
2010,04,10,09,16,3.20
2010,04,10,09,17,3.30
2010,04,10,09,18,3.30
2010,04,10,09,19,3.40
2010,04,10,09,20,3.50
2010,04,10,09,21,3.60
2010,04,10,09,22,3.60
2010,04,10,09,23,3.70
2010,04,10,09,24,3.70
2010,04,10,09,25,3.70
2010,04,10,09,26,3.80
2010,04,10,09,27,3.80
2010,04,10,09,28,3.80
2010,04,10,09,29,3.80
2010,04,10,09,30,3.90
2010,04,10,09,31,4.00
2010,04,10,09,32,4.00
2010,04,10,09,33,4.10
2010,04,10,09,34,4.10
2010,04,10,09,35,4.20
2010,04,10,09,36,4.20
2010,04,10,09,37,4.30
2010,04,10,09,38,4.30
2010,04,10,09,39,4.40
2010,04,10,09,40,4.40
2010,04,10,09,41,4.50
2010,04,10,09,42,4.50
2010,04,10,09,43,4.60
2010,04,10,09,44,4.60
2010,04,10,09,45,4.70
2010,04,10,09,46,4.70
2010,04,10,09,47,4.80
2010,04,10,09,48,4.80
2010,04,10,09,49,4.80
2010,04,10,09,50,4.80
2010,04,10,09,51,4.90
2010,04,10,09,52,4.90
2010,04,10,09,53,4.90
2010,04,10,09,54,4.90
2010,04,10,09,55,4.90
2010,04,10,09,56,5.00
2010,04,10,09,57,5.00
2010,04,10,09,58,5.00
2010,04,10,09,59,5.10
2010,04,10,10,00,5.10
2010,04,10,10,01,5.10
2010,04,10,10,02,5.10
2010,04,10,10,03,5.20
2010,04,10,10,04,5.30
2010,04,10,10,05,5.40
2010,04,10,10,06,5.40
2010,04,10,10,07,5.50
2010,04,10,10,08,5.60
2010,04,10,10,09,5.60
2010,04,10,10,10,5.70
2010,04,10,10,11,5.80
2010,04,10,10,12,5.80
2010,04,10,10,13,5.80
2010,04,10,10,14,5.90
2010,04,10,10,15,6.00
2010,04,10,10,16,6.00
2010,04,10,10,17,6.10
2010,04,10,10,18,6.20
2010,04,10,10,19,6.20
2010,04,10,10,20,6.20
2010,04,10,10,21,6.20
2010,04,10,10,22,6.30
2010,04,10,10,23,6.30
2010,04,10,10,24,6.40
2010,04,10,10,25,6.50
2010,04,10,10,26,6.60
2010,04,10,10,27,6.70
2010,04,10,10,28,6.70
2010,04,10,10,29,6.70
2010,04,10,10,30,6.70
2010,04,10,10,31,6.70
2010,04,10,10,32,6.80
2010,04,10,10,33,6.80
2010,04,10,10,34,6.90
2010,04,10,10,35,6.90
2010,04,10,10,36,6.90
2010,04,10,10,37,6.90
2010,04,10,10,38,7.00
2010,04,10,10,39,7.00
2010,04,10,10,40,7.10
2010,04,10,10,41,7.20
2010,04,10,10,42,7.20
2010,04,10,10,43,7.20
2010,04,10,10,44,7.30
2010,04,10,10,45,7.30
2010,04,10,10,46,7.40
2010,04,10,10,47,7.40
2010,04,10,10,48,7.50
2010,04,10,10,49,7.50
2010,04,10,10,50,7.60
2010,04,10,10,51,7.60
2010,04,10,10,52,7.70
2010,04,10,10,53,7.80
2010,04,10,10,54,7.90
2010,04,10,10,55,8.00
2010,04,10,10,56,8.10
2010,04,10,10,57,8.10
2010,04,10,10,58,8.20
2010,04,10,10,59,8.20
2010,04,10,11,00,8.20
2010,04,10,11,01,8.20
2010,04,10,11,02,8.30
2010,04,10,11,03,8.50
2010,04,10,11,04,8.60
2010,04,10,11,05,8.70
2010,04,10,11,06,8.80
2010,04,10,11,07,8.90
2010,04,10,11,08,8.90
2010,04,10,11,09,8.80
2010,04,10,11,10,8.70
2010,04,10,11,11,8.70
2010,04,10,11,12,8.70
2010,04,10,11,13,8.70
2010,04,10,11,14,8.60
2010,04,10,11,15,8.70
2010,04,10,11,16,8.70
2010,04,10,11,17,8.60
2010,04,10,11,18,8.60
2010,04,10,11,19,8.60
2010,04,10,11,20,8.60
2010,04,10,11,21,8.60
2010,04,10,11,22,8.70
2010,04,10,11,23,8.70
2010,04,10,11,24,8.70
2010,04,10,11,25,8.60
2010,04,10,11,26,8.50
2010,04,10,11,27,8.50
2010,04,10,11,28,8.50
2010,04,10,11,29,8.40
2010,04,10,11,30,8.50
2010,04,10,11,31,8.50
2010,04,10,11,32,8.60
2010,04,10,11,33,8.60
2010,04,10,11,34,8.60
2010,04,10,11,35,8.70
2010,04,10,11,36,8.70
2010,04,10,11,37,8.60
2010,04,10,11,38,8.50
2010,04,10,11,39,8.40
2010,04,10,11,40,8.40
2010,04,10,11,41,8.50
2010,04,10,11,42,8.50
2010,04,10,11,43,8.60
2010,04,10,11,44,8.70
2010,04,10,11,45,8.60
2010,04,10,11,46,8.60
2010,04,10,11,47,8.60
2010,04,10,11,48,8.60
2010,04,10,11,49,8.60
2010,04,10,11,50,8.60
2010,04,10,11,51,8.60
2010,04,10,11,52,8.60
2010,04,10,11,53,8.60
2010,04,10,11,54,8.50
2010,04,10,11,55,8.50
2010,04,10,11,56,8.60
2010,04,10,11,57,8.60
2010,04,10,11,58,8.70
2010,04,10,11,59,8.70
2010,04,10,12,00,8.70
2010,04,10,12,01,8.70
2010,04,10,12,02,8.70
2010,04,10,12,03,8.70
2010,04,10,12,04,8.70
2010,04,10,12,05,8.80
2010,04,10,12,06,8.80
2010,04,10,12,07,8.70
2010,04,10,12,08,8.70
2010,04,10,12,09,8.70
2010,04,10,12,10,8.80
2010,04,10,12,11,8.80
2010,04,10,12,12,8.90
2010,04,10,12,13,9.00
2010,04,10,12,14,9.00
2010,04,10,12,15,9.00
2010,04,10,12,16,9.10
2010,04,10,12,17,9.00
2010,04,10,12,18,8.90
2010,04,10,12,19,8.80
2010,04,10,12,20,8.80
2010,04,10,12,21,8.90
2010,04,10,12,22,9.00
2010,04,10,12,23,9.00
2010,04,10,12,24,9.00
2010,04,10,12,25,9.10
2010,04,10,12,26,9.20
2010,04,10,12,27,9.10
2010,04,10,12,28,9.10
2010,04,10,12,29,9.10
2010,04,10,12,30,9.20
2010,04,10,12,31,9.20
2010,04,10,12,32,9.20
2010,04,10,12,33,9.20
2010,04,10,12,34,9.20
2010,04,10,12,35,9.10
2010,04,10,12,36,9.20
2010,04,10,12,37,9.10
2010,04,10,12,38,9.10
2010,04,10,12,39,9.10
2010,04,10,12,40,9.10
2010,04,10,12,41,9.20
2010,04,10,12,42,9.20
2010,04,10,12,43,9.20
2010,04,10,12,44,9.30
2010,04,10,12,45,9.30
2010,04,10,12,46,9.30
2010,04,10,12,47,9.40
2010,04,10,12,48,9.40
2010,04,10,12,49,9.40
2010,04,10,12,50,9.50
2010,04,10,12,51,9.50
2010,04,10,12,52,9.50
2010,04,10,12,53,9.50
2010,04,10,12,54,9.50
2010,04,10,12,55,9.50
2010,04,10,12,56,9.50
2010,04,10,12,57,9.60
2010,04,10,12,58,9.60
2010,04,10,12,59,9.60
2010,04,10,13,00,9.60
2010,04,10,13,01,9.60
2010,04,10,13,02,9.60
2010,04,10,13,03,9.60
2010,04,10,13,04,9.60
2010,04,10,13,05,9.60
2010,04,10,13,06,9.60
2010,04,10,13,07,9.60
2010,04,10,13,08,9.60
2010,04,10,13,09,9.60
2010,04,10,13,10,9.60
2010,04,10,13,11,9.60
2010,04,10,13,12,9.60
2010,04,10,13,13,9.60
2010,04,10,13,14,9.60
2010,04,10,13,15,9.60
2010,04,10,13,16,9.60
2010,04,10,13,17,9.60
2010,04,10,13,18,9.60
2010,04,10,13,19,9.60
2010,04,10,13,20,9.60
2010,04,10,13,21,9.70
2010,04,10,13,22,9.70
2010,04,10,13,23,9.70
2010,04,10,13,24,9.70
2010,04,10,13,25,9.70
2010,04,10,13,26,9.70
2010,04,10,13,27,9.80
2010,04,10,13,28,9.80
2010,04,10,13,29,9.90
2010,04,10,13,30,9.90
2010,04,10,13,31,9.90
2010,04,10,13,32,9.90
2010,04,10,13,33,9.90
2010,04,10,13,34,9.90
2010,04,10,13,35,9.80
2010,04,10,13,36,9.70
2010,04,10,13,37,9.80
2010,04,10,13,38,9.80
2010,04,10,13,39,9.90
2010,04,10,13,40,9.90
2010,04,10,13,41,9.90
2010,04,10,13,42,9.90
2010,04,10,13,43,9.90
2010,04,10,13,44,9.80
2010,04,10,13,45,9.70
2010,04,10,13,46,9.70
2010,04,10,13,47,9.70
2010,04,10,13,48,9.70
2010,04,10,13,49,9.70
2010,04,10,13,50,9.70
2010,04,10,13,51,9.70
2010,04,10,13,52,9.70
2010,04,10,13,53,9.80
2010,04,10,13,54,9.80
2010,04,10,13,55,9.90
2010,04,10,13,56,9.80
2010,04,10,13,57,9.80
2010,04,10,13,58,9.80
2010,04,10,13,59,9.70
2010,04,10,14,00,9.70
2010,04,10,14,01,9.70
2010,04,10,14,02,9.80
2010,04,10,14,03,9.90
2010,04,10,14,04,9.90
2010,04,10,14,05,9.90
2010,04,10,14,06,9.90
2010,04,10,14,07,9.90
2010,04,10,14,08,10.00
2010,04,10,14,09,10.10
2010,04,10,14,10,10.20
2010,04,10,14,11,10.20
2010,04,10,14,12,10.20
2010,04,10,14,13,10.10
2010,04,10,14,14,10.10
2010,04,10,14,15,10.20
2010,04,10,14,16,10.20
2010,04,10,14,17,10.30
2010,04,10,14,18,10.30
2010,04,10,14,19,10.30
2010,04,10,14,20,10.30
2010,04,10,14,21,10.20
2010,04,10,14,22,10.20
2010,04,10,14,23,10.20
2010,04,10,14,24,10.30
2010,04,10,14,25,10.40
2010,04,10,14,26,10.50
2010,04,10,14,27,10.50
2010,04,10,14,28,10.60
2010,04,10,14,29,10.50
2010,04,10,14,30,10.40
2010,04,10,14,31,10.30
2010,04,10,14,32,10.30
2010,04,10,14,33,10.30
2010,04,10,14,34,10.30
2010,04,10,14,35,10.20
2010,04,10,14,36,10.20
2010,04,10,14,37,10.20
2010,04,10,14,38,10.30
2010,04,10,14,39,10.30
2010,04,10,14,40,10.30
2010,04,10,14,41,10.40
2010,04,10,14,42,10.40
2010,04,10,14,43,10.50
2010,04,10,14,44,10.50
2010,04,10,14,45,10.60
2010,04,10,14,46,10.60
2010,04,10,14,47,10.60
2010,04,10,14,48,10.60
2010,04,10,14,49,10.70
2010,04,10,14,50,10.70
2010,04,10,14,51,10.70
2010,04,10,14,52,10.60
2010,04,10,14,53,10.50
2010,04,10,14,54,10.50
2010,04,10,14,55,10.60
2010,04,10,14,56,10.60
2010,04,10,14,57,10.70
2010,04,10,14,58,10.60
2010,04,10,14,59,10.50
2010,04,10,15,00,10.50
2010,04,10,15,01,10.50
2010,04,10,15,02,10.60
2010,04,10,15,03,10.60
2010,04,10,15,04,10.60
2010,04,10,15,05,10.60
2010,04,10,15,06,10.50
2010,04,10,15,07,10.40
2010,04,10,15,08,10.40
2010,04,10,15,09,10.50
2010,04,10,15,10,10.60
2010,04,10,15,11,10.60
2010,04,10,15,12,10.70
2010,04,10,15,13,10.70
2010,04,10,15,14,10.80
2010,04,10,15,15,10.80
2010,04,10,15,16,10.70
2010,04,10,15,17,10.70
2010,04,10,15,18,10.60
2010,04,10,15,19,10.60
2010,04,10,15,20,10.70
2010,04,10,15,21,10.70
2010,04,10,15,22,10.70
2010,04,10,15,23,10.70
2010,04,10,15,24,10.60
2010,04,10,15,25,10.70
2010,04,10,15,26,10.70
2010,04,10,15,27,10.70
2010,04,10,15,28,10.70
2010,04,10,15,29,10.80
2010,04,10,15,30,10.80
2010,04,10,15,31,10.80
2010,04,10,15,32,10.80
2010,04,10,15,33,10.80
2010,04,10,15,34,10.70
2010,04,10,15,35,10.70
2010,04,10,15,36,10.70
2010,04,10,15,37,10.70
2010,04,10,15,38,10.70
2010,04,10,15,39,10.70
2010,04,10,15,40,10.70
2010,04,10,15,41,10.70
2010,04,10,15,42,10.60
2010,04,10,15,43,10.70
2010,04,10,15,44,10.70
2010,04,10,15,45,10.70
2010,04,10,15,46,10.70
2010,04,10,15,47,10.70
2010,04,10,15,48,10.60
2010,04,10,15,49,10.60
2010,04,10,15,50,10.60
2010,04,10,15,51,10.60
2010,04,10,15,52,10.70
2010,04,10,15,53,10.70
2010,04,10,15,54,10.70
2010,04,10,15,55,10.70
2010,04,10,15,56,10.70
2010,04,10,15,57,10.60
2010,04,10,15,58,10.60
2010,04,10,15,59,10.70
2010,04,10,16,00,10.70
2010,04,10,16,01,10.70
2010,04,10,16,02,10.70
2010,04,10,16,03,10.70
2010,04,10,16,04,10.70
2010,04,10,16,05,10.60
2010,04,10,16,06,10.70
2010,04,10,16,07,10.70
2010,04,10,16,08,10.70
2010,04,10,16,09,10.70
2010,04,10,16,10,10.70
2010,04,10,16,11,10.70
2010,04,10,16,12,10.70
2010,04,10,16,13,10.70
2010,04,10,16,14,10.70
2010,04,10,16,15,10.70
2010,04,10,16,16,10.70
2010,04,10,16,17,10.80
2010,04,10,16,18,10.80
2010,04,10,16,19,10.80
2010,04,10,16,20,10.80
2010,04,10,16,21,10.80
2010,04,10,16,22,10.80
2010,04,10,16,23,10.70
2010,04,10,16,24,10.70
2010,04,10,16,25,10.70
2010,04,10,16,26,10.70
2010,04,10,16,27,10.60
2010,04,10,16,28,10.60
2010,04,10,16,29,10.60
2010,04,10,16,30,10.70
2010,04,10,16,31,10.70
2010,04,10,16,32,10.70
2010,04,10,16,33,10.70
2010,04,10,16,34,10.70
2010,04,10,16,35,10.70
2010,04,10,16,36,10.70
2010,04,10,16,37,10.70
2010,04,10,16,38,10.70
2010,04,10,16,39,10.70
2010,04,10,16,40,10.70
2010,04,10,16,41,10.70
2010,04,10,16,42,10.70
2010,04,10,16,43,10.70
2010,04,10,16,44,10.70
2010,04,10,16,45,10.70
2010,04,10,16,46,10.60
2010,04,10,16,47,10.60
2010,04,10,16,48,10.60
2010,04,10,16,49,10.60
2010,04,10,16,50,10.60
2010,04,10,16,51,10.60
2010,04,10,16,52,10.70
2010,04,10,16,53,10.80
2010,04,10,16,54,10.80
2010,04,10,16,55,10.90
2010,04,10,16,56,10.90
2010,04,10,16,57,10.90
2010,04,10,16,58,11.00
2010,04,10,16,59,11.00
2010,04,10,17,00,11.10
2010,04,10,17,01,11.00
2010,04,10,17,02,10.90
2010,04,10,17,03,10.80
2010,04,10,17,04,10.70
2010,04,10,17,05,10.70
2010,04,10,17,06,10.80
2010,04,10,17,07,10.70
2010,04,10,17,08,10.70
2010,04,10,17,09,10.70
2010,04,10,17,10,10.70
2010,04,10,17,11,10.70
2010,04,10,17,12,10.70
2010,04,10,17,13,10.60
2010,04,10,17,14,10.60
2010,04,10,17,15,10.70
2010,04,10,17,16,10.70
2010,04,10,17,17,10.80
2010,04,10,17,18,10.80
2010,04,10,17,19,10.80
2010,04,10,17,20,10.70
2010,04,10,17,21,10.70
2010,04,10,17,22,10.70
2010,04,10,17,23,10.70
2010,04,10,17,24,10.70
2010,04,10,17,25,10.70
2010,04,10,17,26,10.70
2010,04,10,17,27,10.70
2010,04,10,17,28,10.70
2010,04,10,17,29,10.80
2010,04,10,17,30,10.80
2010,04,10,17,31,10.80
2010,04,10,17,32,10.80
2010,04,10,17,33,10.70
2010,04,10,17,34,10.70